Wetbulb
57.45 57.20 56.51 55.96 55.28 54.98 51.63 50.53 50.19 49.95 50.93 52.17 53.07 53.29 53.33 53.29 54.50 56.23 55.61 54.86 53.48 52.64 52.18 51.17 49.55 50.71 49.26 50.04 51.59 52.19 52.87 54.73 54.89 53.50 54.56 51.89 52.33 51.59 51.89 51.97 51.57 51.49 51.60
56.66 55.95 54.50 52.57 51.58 50.47 49.22 48.92 48.82 48.52 49.22 49.77 50.73 51.02 52.30 52.30 51.26 50.25 49.20 47.89 46.10 45.24 45.21 45.67 45.03 45.32 44.70 46.10 46.66 46.90 48.51 49.82 50.53 52.50 49.29 49.59 48.66 49.47 49.41 49.31 49.15 49.64 49.70
55.13 53.35 52.35 51.75 50.45 48.46 49.68 49.76 48.22 47.37 47.70 48.58 49.35 48.54 49.33 50.79 50.10 49.53 48.52 47.34 49.96 45.80 44.54 43.64 43.48 43.70 42.67 43.85 44.05 44.80 45.12 47.35 47.46 48.10 47.36 47.68 47.77 47.63 47.27 48.84 48.14 48.45 48.58
53.60 52.44 52.56 49.40 48.70 47.95 47.60 48.72 46.68 45.69 45.92 46.20 46.69 47.10 49.03 49.42 50.25 49.19 47.51 46.10 45.23 44.85 44.79 44.81 44.36 43.59 42.62 43.21 44.13 44.09 45.50 44.71 44.85 43.99 44.27 45.48 46.08 46.23 46.79 45.10 45.62 47.16 46.97
52.85 52.85 51.81 49.50 48.35 47.07 45.99 45.51 45.66 45.03 44.25 44.17 44.77 45.99 46.13 46.23 47.41 45.87 44.58 43.06 42.12 41.27 41.48 42.80 44.12 46.36 46.92 45.39 43.79 43.80 44.63 43.97 43.11 43.03 42.00 43.01 41.52 43.76 43.60 44.52 42.17 43.89 47.11
51.74 51.32 49.73 50.07 46.78 45.75 45.69 47.50 47.25 46.48 46.03 46.25 46.22 45.56 44.57 44.17 43.70 43.73 42.32 40.66 40.29 39.74 39.96 41.22 42.30 42.22 43.88 44.96 44.77 44.35 44.30 44.00 42.76 42.01 40.89 41.70 42.25 44.37 44.53 43.50 43.93 41.86 42.55
49.09 49.73 50.33 49.56 45.99 44.84 44.90 45.55 45.56 44.94 45.31 45.00 44.99 44.99 44.31 44.00 42.36 42.47 42.27 42.15 42.30 43.11 43.19 42.89 42.64 43.11 43.28 43.72 42.62 42.28 43.43 43.32 43.86 47.22 43.43 42.94 43.79 45.13 44.19 43.90 42.87 42.37 43.82
48.78 49.13 49.07 48.72 46.18 46.10 45.42 43.23 44.62 44.79 44.23 43.88 44.34 44.64 44.55 43.97 42.16 41.75 42.41 44.51 43.53 43.16 43.28 43.87 44.50 43.80 43.03 44.83 44.90 44.01 44.30 44.73 45.06 45.47 45.17 44.70 46.17 45.89 45.64 44.37 43.68 44.93 47.47
47.61 48.21 46.84 47.19 46.43 43.41 41.72 44.20 44.92 44.59 44.27 44.10 44.44 42.89 42.98 43.24 42.41 42.40 42.45 41.99 41.75 42.27 43.45 43.72 44.37 44.63 41.25 40.51 42.45 41.71 42.66 43.54 44.33 44.33 44.53 44.65 44.45 44.33 44.92 45.74 44.87 44.91 43.64
46.12 45.37 45.60 45.48 44.16 42.95 43.07 45.10 45.43 45.43 43.80 43.05 43.06 43.65 43.00 42.99 42.19 41.93 43.10 42.76 42.36 42.63 44.18 44.98 42.12 42.33 41.32 41.57 43.03 42.83 42.83 43.30 44.48 44.27 45.36 44.46 45.85 46.70 45.25 47.00 47.24 44.18 45.64
45.39 44.74 45.99 46.61 44.65 44.65 46.26 46.07 45.30 44.09 43.21 43.12 43.20 44.03 44.34 43.57 43.99 41.57 41.93 44.57 43.96 43.92 43.43 42.79 43.76 42.06 41.66 41.79 42.48 43.98 43.57 44.60 45.10 45.59 45.45 45.41 45.46 47.26 48.07 48.27 48.67 47.20 46.14
45.24 45.74 45.43 45.69 45.23 45.86 46.37 43.94 43.69 44.02 43.50 43.38 43.11 43.52 44.67 45.16 42.77 42.07 40.86 41.56 43.86 43.87 42.65 43.71 43.60 41.16 41.08 41.65 44.01 42.49 43.31 45.26 45.88 46.16 44.71 43.87 44.63 44.69 44.97 45.45 46.06 46.27 45.31
44.93 45.29 45.73 46.02 46.15 46.40 44.95 44.24 42.98 42.79 42.46 42.68 42.34 42.22 42.75 43.63 43.84 43.24 41.86 41.57 42.88 44.12 43.54 43.13 42.16 41.88 42.81 44.49 43.62 44.03 44.99 45.91 45.05 43.60 43.19 42.98 43.86 45.00 45.66 45.54 45.49 45.42 45.76
44.00 44.15 46.11 45.68 46.18 46.78 47.14 45.91 43.76 42.40 42.45 42.65 43.11 42.55 43.46 43.87 43.10 43.74 44.61 44.83 44.12 44.52 44.53 45.87 44.50 44.15 43.68 45.08 46.00 45.93 46.06 45.83 44.59 43.32 43.08 43.90 44.86 44.69 44.24 45.24 43.97 44.19 43.59
45.49 44.05 45.52 46.04 46.21 46.12 46.50 46.01 43.94 43.18 40.97 41.75 42.53 43.64 42.22 42.62 41.96 41.04 41.48 44.27 44.75 43.37 45.91 47.20 46.03 45.55 44.81 45.29 45.57 46.34 46.66 45.86 44.68 44.66 43.23 42.88 42.64 43.17 43.33 44.62 43.91 43.08 41.28
45.12 44.01 44.71 44.70 45.04 44.82 46.17 46.75 41.07 40.75 39.97 39.07 39.04 41.40 46.66 40.78 40.05 40.45 40.66 40.73 40.59 40.93 46.41 45.01 45.23 46.02 45.52 45.85 46.30 45.28 44.80 45.36 45.01 44.52 43.70 43.48 42.92 42.57 42.67 43.39 43.36 42.26 40.88
45.63 45.32 45.51 44.15 45.20 44.75 46.21 45.62 43.78 45.92 42.21 40.80 40.35 40.34 39.61 39.43 40.13 40.33 40.63 40.79 41.05 43.34 45.21 44.74 44.47 44.34 44.18 44.01 44.39 44.85 44.98 44.95 45.21 45.50 43.92 43.35 43.07 42.96 42.67 42.32 42.08 42.11 41.34
48.69 43.56 45.53 45.58 45.83 46.34 46.61 46.72 47.42 45.13 44.19 44.96 43.99 41.73 40.57 39.77 40.08 40.64 40.78 43.77 46.48 46.38 47.44 46.25 46.34 46.78 45.07 43.89 44.16 44.69 45.34 46.69 45.15 44.80 44.72 44.71 43.95 43.05 42.40 41.99 42.56 42.02 42.05
48.30 46.97 46.07 45.51 45.48 46.16 47.54 47.56 47.78 47.33 44.25 46.15 48.82 45.20 42.87 40.93 41.02 41.84 42.41 48.45 47.43 47.24 47.60 47.46 46.53 44.35 44.71 46.27 44.44 44.87 45.01 46.59 45.15 46.27 45.20 45.47 45.81 45.04 44.55 44.08 42.94 37.98 39.74
47.25 41.99 42.62 45.74 45.40 46.45 48.00 47.30 45.82 45.89 45.83 46.92 46.20 43.78 45.67 46.29 47.74 48.17 47.79 46.59 45.99 46.64 46.90 45.99 45.26 47.23 46.02 44.20 44.30 46.28 43.89 46.82 47.43 45.79 46.89 45.18 45.06 46.89 45.51 44.98 44.48 42.14 41.42
47.51 46.72 38.54 45.67 45.31 45.71 45.94 45.26 45.61 45.53 45.45 47.13 47.32 44.89 34.03 47.62 47.91 46.26 45.72 46.32 45.85 46.44 46.73 47.04 46.79 46.92 47.34 47.74 46.02 43.74 45.81 44.51 45.36 49.34 49.55 47.86 47.42 46.43 48.62 47.12 45.87 44.61 42.13
47.86 46.82 45.98 45.09 45.51 45.60 45.18 45.93 45.56 45.58 46.44 46.84 48.14 46.06 36.27 47.68 46.23 45.75 45.41 47.59 48.05 46.91 47.90 47.43 47.27 47.18 46.95 47.26 47.16 43.35 42.50 43.67 45.39 44.85 50.70 51.40 49.98 49.36 50.09 47.74 45.55 44.88 45.05
47.17 47.29 46.12 45.91 45.87 41.83 45.00 45.78 45.05 45.34 46.08 45.83 46.61 46.03 46.27 46.10 46.28 44.69 45.46 46.17 46.66 48.21 48.43 48.00 47.14 46.96 47.40 47.55 47.78 44.07 40.60 40.96 42.19 43.74 47.13 50.03 50.59 48.79 47.87 47.72 48.35 47.44 46.58
46.72 45.86 45.42 44.81 44.86 45.07 45.23 45.08 45.39 41.55 44.48 45.24 44.27 43.76 43.73 43.40 43.58 43.92 44.37 45.27 46.97 47.41 48.37 48.11 47.42 46.73 46.57 46.74 46.93 43.18 42.00 38.63 38.49 44.11 47.98 49.56 51.91 47.22 48.58 49.49 48.62 48.16 47.67
47.54 46.17 45.10 45.12 44.57 44.20 44.52 45.13 44.88 44.76 44.55 45.31 45.74 46.21 46.68 46.57 44.74 44.18 46.22 47.10 47.25 47.52 47.64 47.61 47.35 47.12 47.08 46.30 45.22 40.57 35.69 32.66 37.52 34.05 45.50 50.47 51.63 49.29 49.21 50.39 49.07 48.18 47.00
45.37 45.94 45.48 45.42 44.54 44.42 44.09 43.91 43.38 43.85 43.87 43.79 43.85 43.82 44.07 44.32 43.98 45.35 45.26 46.05 46.19 46.62 46.66 46.84 45.02 46.01 46.93 46.12 42.47 34.44 33.11 32.75 35.65 32.93 42.76 49.99 50.40 49.77 50.40 50.19 49.11 48.52 47.79
MSLP
1016.71 1016.53 1016.12 1015.74 1015.12 1014.53 1014.27 1013.82 1013.14 1012.24 1011.36 1010.55 1009.99 1009.61 1009.28 1009.00 1008.67 1008.28 1008.09 1008.00 1008.12 1008.32 1008.25 1008.31 1008.58 1008.72 1008.81 1008.84 1008.66 1008.69 1009.10 1009.26 1008.87 1009.99 1010.32 1011.20 1011.29 1011.46 1011.31 1011.44 1011.64 1011.81 1011.87
1017.33 1017.11 1016.89 1016.46 1016.06 1015.53 1015.08 1014.47 1013.89 1013.15 1012.23 1011.54 1010.96 1010.54 1010.07 1009.87 1009.77 1009.40 1009.42 1009.48 1009.23 1010.01 1010.22 1009.69 1010.06 1010.27 1010.14 1010.29 1010.29 1010.35 1010.55 1010.64 1010.08 1010.06 1011.13 1011.10 1011.56 1011.85 1011.82 1011.84 1012.10 1011.87 1012.19
1017.90 1017.58 1017.24 1016.97 1016.69 1016.32 1015.84 1015.17 1014.66 1013.89 1013.26 1012.48 1011.89 1011.52 1011.22 1010.94 1010.88 1010.80 1010.71 1010.70 1010.31 1011.12 1011.54 1011.70 1011.60 1011.65 1011.39 1011.43 1011.50 1011.32 1011.44 1011.26 1011.15 1011.11 1011.14 1011.67 1011.81 1012.03 1011.86 1011.92 1012.13 1012.27 1012.04
1017.97 1017.49 1017.38 1017.52 1017.37 1017.14 1016.68 1015.87 1015.37 1014.86 1014.26 1013.68 1013.30 1012.78 1012.35 1011.83 1011.58 1011.70 1011.73 1011.91 1012.06 1012.11 1011.75 1012.67 1012.36 1012.37 1012.50 1012.15 1012.10 1011.98 1012.10 1012.04 1011.99 1011.86 1011.72 1011.92 1012.11 1012.24 1012.33 1012.05 1011.80 1012.03 1011.73
1018.10 1017.80 1017.89 1018.01 1017.91 1017.77 1017.33 1016.82 1016.19 1015.59 1015.25 1014.85 1014.33 1013.78 1013.48 1012.99 1012.77 1012.75 1012.93 1013.17 1013.26 1013.32 1013.37 1013.48 1013.21 1012.68 1012.46 1012.77 1012.59 1012.61 1012.28 1012.35 1012.15 1012.06 1012.27 1012.19 1012.53 1012.46 1012.52 1012.87 1013.14 1012.70 1011.97
1018.71 1018.44 1018.59 1018.27 1018.30 1018.22 1017.86 1017.27 1016.77 1016.34 1015.89 1015.44 1015.06 1014.66 1014.52 1014.50 1014.25 1014.07 1014.10 1014.09 1014.02 1013.91 1013.95 1013.63 1013.51 1013.65 1013.27 1013.29 1013.32 1013.14 1012.90 1012.81 1012.90 1012.83 1012.97 1013.05 1012.93 1013.12 1013.18 1013.49 1013.24 1013.21 1012.13
1019.25 1018.98 1018.85 1018.81 1018.84 1018.76 1018.51 1017.96 1017.56 1017.19 1016.75 1016.28 1015.93 1015.55 1015.29 1015.29 1015.25 1015.09 1014.89 1014.67 1014.31 1014.08 1013.89 1013.74 1013.82 1014.04 1013.88 1013.61 1013.53 1013.69 1013.50 1013.65 1013.84 1013.49 1013.46 1013.60 1013.32 1013.36 1013.88 1013.72 1013.69 1013.65 1012.94
1019.76 1019.62 1019.49 1019.30 1019.31 1019.10 1018.87 1018.81 1018.35 1017.95 1017.57 1017.18 1016.76 1016.40 1016.05 1016.09 1016.07 1015.74 1015.29 1014.93 1014.85 1014.83 1014.76 1014.56 1014.31 1014.24 1014.48 1013.91 1013.80 1013.70 1013.86 1013.98 1013.87 1013.81 1013.93 1013.83 1013.82 1013.98 1014.05 1014.19 1014.02 1013.66 1012.99
1020.39 1020.34 1020.31 1020.11 1019.83 1019.91 1019.71 1019.29 1018.99 1018.59 1018.25 1017.89 1017.65 1017.49 1017.08 1016.85 1016.67 1016.25 1015.69 1015.41 1015.27 1015.17 1015.05 1014.94 1014.69 1014.49 1014.77 1014.65 1014.36 1014.40 1014.21 1014.11 1014.02 1014.02 1013.99 1014.11 1014.23 1014.24 1014.32 1014.19 1013.82 1013.39 1013.13
1021.23 1021.35 1021.19 1020.96 1020.73 1020.64 1020.49 1019.95 1019.66 1019.17 1019.02 1018.68 1018.33 1018.07 1017.83 1017.37 1017.17 1016.70 1016.02 1015.55 1015.30 1015.09 1015.09 1015.05 1015.36 1015.34 1015.32 1015.14 1014.88 1014.77 1014.36 1014.23 1014.05 1014.15 1014.24 1014.41 1014.26 1013.98 1014.22 1014.13 1013.75 1013.39 1012.97
1022.19 1021.99 1021.60 1021.39 1021.41 1021.32 1020.85 1020.48 1020.14 1019.90 1019.66 1019.25 1018.80 1018.41 1018.09 1017.96 1017.54 1017.24 1016.68 1015.92 1015.58 1015.46 1015.51 1015.61 1015.68 1015.75 1015.52 1015.36 1015.18 1014.89 1014.73 1014.54 1014.41 1014.32 1014.29 1014.38 1014.33 1013.98 1013.89 1013.91 1013.77 1013.65 1013.40
1022.67 1022.24 1022.18 1022.10 1021.84 1021.66 1021.30 1021.14 1020.84 1020.40 1019.99 1019.64 1019.23 1018.83 1018.54 1018.24 1018.14 1017.86 1017.52 1017.22 1016.86 1016.46 1016.44 1016.34 1016.23 1016.08 1015.87 1015.65 1015.33 1015.19 1014.96 1014.77 1014.61 1014.47 1014.56 1014.55 1014.55 1014.49 1014.51 1014.42 1014.29 1014.20 1014.16
1023.06 1022.87 1022.75 1022.62 1022.41 1022.09 1021.91 1021.59 1021.33 1021.02 1020.64 1020.28 1019.88 1019.50 1019.16 1018.93 1018.66 1018.35 1018.05 1017.69 1017.37 1017.02 1017.03 1016.92 1016.65 1016.34 1016.00 1015.75 1015.66 1015.42 1015.14 1015.04 1014.97 1014.95 1014.97 1014.99 1014.94 1014.85 1014.71 1014.60 1014.54 1014.45 1014.23
1023.62 1023.53 1023.15 1022.93 1022.57 1022.40 1022.04 1021.99 1022.02 1021.88 1021.48 1021.06 1020.58 1020.16 1019.71 1019.36 1019.15 1018.84 1018.49 1018.13 1017.81 1017.51 1017.28 1017.02 1016.83 1016.65 1016.43 1016.25 1015.93 1015.73 1015.60 1015.44 1015.42 1015.39 1015.33 1015.27 1015.22 1015.06 1014.88 1014.76 1014.64 1014.50 1014.31
1023.88 1023.91 1023.56 1023.11 1022.92 1022.57 1022.55 1022.65 1022.69 1022.73 1022.61 1022.10 1021.47 1020.97 1020.51 1020.07 1019.90 1019.54 1019.08 1018.72 1018.42 1018.09 1017.41 1017.02 1016.97 1016.92 1016.78 1016.59 1016.35 1015.97 1015.72 1015.76 1015.69 1015.62 1015.60 1015.56 1015.48 1015.29 1015.11 1014.99 1014.82 1014.67 1014.60
1024.03 1024.11 1023.96 1023.51 1023.30 1023.16 1022.66 1022.57 1022.98 1022.83 1022.68 1022.47 1022.16 1021.58 1021.02 1020.76 1020.28 1019.89 1019.54 1019.17 1018.80 1018.38 1017.97 1017.73 1017.60 1017.32 1017.15 1016.94 1016.65 1016.47 1016.39 1016.05 1015.97 1015.92 1015.82 1015.69 1015.58 1015.42 1015.28 1015.18 1015.10 1015.05 1015.03
1024.10 1024.19 1023.86 1023.74 1023.50 1023.41 1022.93 1022.86 1022.87 1022.44 1022.37 1022.42 1022.22 1022.08 1021.69 1021.24 1020.69 1020.38 1019.99 1019.58 1019.19 1018.78 1018.55 1018.18 1017.90 1017.72 1017.55 1017.38 1017.19 1016.94 1016.63 1016.55 1016.34 1016.00 1016.00 1015.89 1015.75 1015.62 1015.47 1015.47 1015.47 1015.44 1015.44
1024.18 1024.33 1023.92 1023.86 1023.79 1023.44 1023.26 1023.15 1022.87 1022.87 1022.75 1022.72 1022.40 1022.44 1022.08 1021.73 1021.23 1020.75 1020.20 1019.53 1019.24 1019.13 1018.89 1018.63 1018.35 1018.08 1017.81 1017.65 1017.38 1017.10 1016.88 1016.60 1016.55 1016.34 1016.14 1015.96 1015.92 1015.86 1015.81 1015.80 1015.78 1015.75 1015.78
1024.17 1024.22 1024.44 1024.44 1024.35 1024.02 1023.61 1023.40 1023.29 1023.30 1023.37 1023.13 1022.52 1022.43 1022.38 1022.00 1021.55 1021.12 1020.62 1019.96 1019.75 1019.53 1019.26 1018.94 1018.88 1018.78 1018.37 1017.85 1017.69 1017.40 1017.05 1016.81 1016.66 1016.42 1016.34 1016.16 1016.00 1015.98 1015.93 1015.98 1016.12 1016.20 1016.20
1024.86 1025.07 1024.96 1024.83 1024.68 1024.49 1024.06 1023.91 1024.03 1023.97 1023.75 1023.41 1023.32 1023.36 1022.89 1021.99 1021.70 1021.46 1021.31 1021.11 1020.71 1020.22 1019.87 1019.62 1019.45 1018.89 1018.71 1018.58 1018.18 1017.63 1017.39 1016.91 1016.66 1016.58 1016.37 1016.39 1016.33 1015.95 1015.90 1015.96 1016.09 1016.35 1016.50
1024.89 1025.04 1025.34 1025.25 1025.20 1025.08 1024.93 1024.76 1024.61 1024.41 1024.22 1023.84 1023.64 1023.89 1023.54 1022.80 1022.40 1022.28 1022.16 1021.71 1021.50 1021.09 1020.65 1020.15 1019.65 1019.25 1018.79 1018.60 1018.44 1018.25 1017.70 1017.40 1017.10 1016.39 1016.23 1016.32 1016.22 1016.09 1015.75 1015.65 1015.84 1016.17 1016.58
1025.14 1025.26 1025.52 1025.59 1025.67 1025.53 1025.41 1025.24 1025.09 1024.86 1024.60 1024.28 1023.93 1024.06 1023.80 1023.34 1023.25 1023.04 1022.81 1022.31 1021.85 1021.63 1021.16 1020.65 1020.11 1019.69 1019.48 1019.20 1018.82 1018.79 1018.38 1017.90 1017.39 1017.05 1016.14 1015.81 1015.87 1015.89 1015.62 1015.55 1015.74 1015.93 1016.08
1025.46 1025.54 1025.89 1025.99 1025.96 1025.89 1025.72 1025.62 1025.53 1025.34 1025.11 1024.99 1024.68 1024.60 1024.40 1024.19 1023.94 1023.73 1023.32 1022.87 1022.39 1021.57 1021.22 1020.94 1020.68 1020.20 1019.82 1019.45 1019.03 1019.12 1018.93 1018.45 1018.02 1017.37 1016.72 1016.14 1015.77 1016.02 1015.93 1015.65 1015.47 1015.55 1015.76
1025.85 1026.10 1026.26 1026.37 1026.35 1026.19 1026.07 1025.94 1025.93 1025.91 1025.74 1025.54 1025.50 1025.32 1025.09 1024.90 1024.56 1024.21 1023.75 1023.36 1022.54 1022.19 1021.67 1021.34 1021.07 1020.78 1020.38 1019.86 1019.42 1019.34 1019.00 1018.84 1018.30 1017.38 1016.66 1016.30 1015.85 1016.06 1016.00 1015.58 1015.45 1015.56 1015.68
1026.42 1026.38 1026.52 1026.54 1026.67 1026.68 1026.57 1026.43 1026.38 1026.27 1026.19 1025.90 1025.67 1025.39 1025.21 1024.88 1024.79 1024.51 1023.77 1023.18 1022.81 1022.43 1022.07 1021.80 1021.47 1021.05 1020.64 1020.29 1019.94 1019.79 1019.43 1018.84 1018.19 1017.76 1016.73 1015.99 1015.69 1016.01 1015.89 1015.49 1015.48 1015.57 1015.72
1026.90 1026.89 1026.92 1026.92 1026.96 1026.93 1026.93 1026.86 1026.88 1026.76 1026.62 1026.55 1026.41 1026.20 1025.97 1025.65 1025.30 1024.74 1024.25 1023.68 1023.26 1022.82 1022.52 1022.19 1022.14 1021.64 1020.95 1020.54 1020.57 1020.17 1019.54 1018.87 1018.16 1017.54 1016.82 1016.09 1016.03 1016.05 1015.89 1015.60 1015.62 1015.59 1015.72
Wind_Speed
13 13 15 16 17 14 11 12 13 12 13 12 12 10 10 10 9 8 8 9 9 6 8 9 11 10 8 7 7 7 6 5 3 4 3 5 3 6 6 6 5 6 5
11 12 14 13 12 11 10 11 11 11 12 13 13 13 12 12 10 10 11 11 14 14 13 14 13 8 11 9 7 9 8 7 5 1 4 3 5 6 7 6 6 5 7
12 11 10 13 12 12 12 13 12 11 13 13 13 14 13 12 11 12 12 11 16 13 12 11 10 9 10 9 9 7 5 5 4 2 2 3 3 5 4 3 5 7 6
11 12 10 10 10 10 11 13 14 13 15 14 15 15 15 12 10 10 11 12 12 12 12 9 8 8 6 6 6 6 5 4 5 3 3 3 3 4 4 5 5 6 5
12 13 12 7 8 9 10 11 13 13 12 12 12 13 14 13 10 11 11 10 10 11 10 9 7 11 13 7 3 5 4 4 4 5 4 5 4 3 5 5 4 7 2
11 13 11 8 9 9 11 13 13 14 15 15 15 15 15 10 21 20 13 9 9 7 5 6 8 9 11 11 8 9 7 5 6 4 3 3 4 3 4 4 4 3 2
9 11 10 9 9 9 9 12 14 14 14 15 15 15 15 14 18 15 14 8 9 10 10 9 7 6 6 6 7 5 7 5 5 2 1 1 2 4 4 4 4 3 2
11 11 11 8 8 9 13 12 12 12 13 13 14 14 13 13 17 13 9 10 9 10 9 8 8 9 9 7 6 5 4 4 2 2 3 3 5 4 3 3 5 6 3
11 11 10 10 10 10 11 12 11 10 11 11 11 12 11 11 17 14 8 8 8 9 9 10 8 9 9 9 6 5 4 3 2 3 4 5 7 6 6 4 3 0 1
11 10 9 9 9 9 9 11 10 9 10 8 10 10 13 10 15 14 10 6 8 7 7 8 12 9 8 7 5 5 5 5 4 1 3 2 5 4 3 3 2 2 2
9 9 10 9 8 8 9 9 9 9 8 9 9 9 10 12 12 14 15 9 7 7 7 6 5 10 10 9 6 4 4 4 4 3 2 3 2 2 1 4 4 4 4
9 11 12 11 9 8 10 9 10 9 8 8 9 8 9 11 12 12 12 11 10 7 6 5 6 10 7 7 5 6 6 3 3 4 4 3 3 3 2 3 4 4 3
10 11 11 11 9 8 9 9 7 8 7 8 6 6 6 5 7 11 10 11 10 6 5 6 7 7 7 7 11 10 6 4 3 3 4 4 3 2 1 2 3 4 6
9 8 9 9 9 9 7 8 8 8 8 8 8 7 7 6 6 6 6 6 8 7 8 6 7 7 7 5 6 6 5 6 4 4 4 3 2 3 3 2 2 2 5
8 6 7 8 8 8 7 8 7 6 5 6 5 5 6 7 5 6 6 6 6 5 3 6 7 7 7 6 5 6 6 6 5 4 4 4 3 3 4 3 4 4 5
6 4 5 5 5 5 6 6 5 5 7 7 7 8 5 9 12 11 10 12 11 11 7 6 7 7 7 7 7 5 5 6 5 4 4 4 4 4 4 5 4 4 4
5 4 5 4 4 5 6 7 6 6 4 8 12 10 11 8 12 13 12 9 11 8 5 5 5 5 4 4 4 5 6 4 4 6 5 4 5 5 5 5 4 4 5
6 3 5 5 5 5 6 6 6 6 8 7 7 9 13 12 12 13 12 5 8 8 8 8 8 7 5 5 4 4 4 4 4 4 5 5 5 4 5 5 4 4 5
6 7 5 5 6 5 5 5 7 7 5 7 8 10 9 10 8 9 11 10 10 10 9 10 7 7 9 8 4 6 4 4 3 3 3 4 4 4 5 4 5 5 5
7 5 6 5 5 6 6 7 6 6 5 6 6 6 8 8 10 10 10 10 10 9 9 9 9 9 8 7 8 6 5 5 3 1 2 1 2 3 4 4 4 4 4
5 6 5 5 5 6 5 6 5 5 5 5 6 8 6 8 9 9 8 8 8 8 9 9 9 10 10 9 7 8 7 5 5 4 2 1 1 0 2 4 4 5 5
5 5 5 5 4 5 5 5 6 6 6 6 6 7 7 7 7 7 7 7 8 7 6 8 9 9 10 9 9 7 8 7 6 5 5 2 2 2 2 4 5 5 5
4 6 5 4 4 5 5 5 6 6 7 7 7 8 7 7 7 7 7 8 8 9 8 8 9 10 10 9 9 6 7 8 7 5 5 5 3 3 3 4 4 6 6
5 6 5 4 5 4 5 5 5 6 6 6 6 5 6 5 6 7 8 8 8 8 9 8 9 12 11 11 10 9 9 9 6 7 6 4 2 4 4 4 5 7 8
3 4 5 4 4 4 5 5 5 6 6 6 6 5 5 7 7 7 8 9 8 8 9 9 9 12 14 16 17 16 14 10 9 7 5 3 4 5 3 4 6 7 7
2 3 4 4 4 4 4 4 5 5 5 5 5 6 7 8 9 9 10 9 9 9 10 8 11 15 15 14 17 15 13 13 12 10 6 2 3 4 4 5 6 5 5
Wind_Direction
359 359 355 353 350 4 9 357 353 355 356 8 13 21 21 15 1 358 41 41 44 50 64 65 54 39 53 51 57 53 48 4 292 127 77 66 53 7 11 5 354 337 324
2 360 2 2 2 9 4 10 7 6 10 15 22 24 25 33 28 43 51 58 75 47 38 49 53 49 52 42 50 50 42 34 352 1 35 32 27 7 4 350 347 344 328
6 359 8 14 14 12 10 17 12 12 15 18 23 26 24 28 42 48 57 61 74 71 71 41 45 40 43 46 42 39 31 38 40 4 48 22 27 20 350 352 339 329 306
1 1 34 33 16 6 8 22 23 18 19 18 23 24 26 24 42 51 55 56 56 60 63 63 59 66 63 53 45 59 53 53 60 53 55 45 14 34 339 354 349 346 328
8 16 16 49 35 16 19 17 21 24 23 25 22 34 34 34 37 54 60 61 62 60 51 44 38 53 63 73 74 69 68 60 62 54 49 43 33 6 34 34 335 326 13
18 23 15 48 44 24 19 24 25 26 26 29 33 42 43 40 52 61 62 56 54 55 57 65 64 52 54 57 92 59 49 69 78 65 59 32 61 24 12 348 336 355 343
12 17 22 36 44 34 29 26 29 30 32 35 36 37 42 40 38 48 59 61 51 44 49 57 60 64 65 85 78 80 70 34 3 354 69 9 355 31 353 330 330 305 316
26 23 25 31 58 35 31 32 33 36 37 37 36 36 39 38 23 20 25 51 57 62 58 60 63 63 45 43 50 37 11 348 338 308 295 316 279 307 307 303 304 308 288
25 28 20 24 49 40 34 29 32 33 33 35 35 28 26 31 16 18 16 45 59 66 60 49 51 53 32 20 23 4 7 21 357 289 296 291 277 276 272 288 280 295 91
28 24 25 40 55 47 35 40 37 35 32 26 23 27 24 24 19 15 14 61 61 68 59 56 45 22 10 10 3 353 8 16 14 101 163 215 223 173 257 295 329 322 309
39 38 40 47 52 37 46 38 29 28 28 20 22 24 33 29 38 21 10 53 52 55 47 36 23 2 3 1 355 3 357 337 42 64 76 130 183 200 41 7 9 349 328
51 54 52 53 53 57 49 33 27 20 18 11 13 18 18 26 25 41 26 24 6 44 30 13 2 356 1 8 35 29 28 33 51 55 59 54 76 88 80 72 56 53 40
62 62 65 62 56 46 40 32 19 9 9 12 12 11 10 9 7 7 26 13 19 25 18 7 6 11 26 53 32 26 28 34 42 59 68 65 45 52 110 100 82 71 62
70 60 64 59 53 46 40 41 30 15 10 13 14 14 7 12 13 3 11 15 13 28 18 22 20 23 36 36 33 41 40 57 48 47 47 41 31 53 63 54 63 72 63
82 69 58 58 42 36 42 26 21 31 9 1 4 0 1 10 353 2 12 21 19 359 31 55 47 36 38 35 37 41 44 57 49 60 53 56 50 51 56 56 61 67 71
90 66 46 31 34 29 24 52 70 22 7 16 17 21 35 23 13 21 24 27 19 360 44 30 29 33 36 32 41 42 30 41 61 53 49 48 67 62 63 62 61 58 63
105 78 57 9 28 33 31 35 18 41 59 32 17 21 20 11 15 19 11 17 27 21 28 10 10 11 9 12 11 18 37 28 22 46 57 49 50 56 52 58 56 59 65
101 30 61 33 36 43 48 30 35 37 13 13 0 4 9 7 10 17 4 28 39 37 35 21 14 14 13 6 352 355 4 35 24 31 48 60 58 50 54 52 50 57 69
92 70 51 55 47 24 47 44 31 36 22 24 20 18 8 348 7 32 11 37 35 32 27 28 26 12 12 6 1 359 334 0 358 23 23 38 64 60 67 75 73 51 60
89 50 51 59 50 40 38 48 39 32 23 40 27 5 352 24 37 31 38 30 27 24 23 22 15 10 18 7 357 7 350 357 349 329 358 44 3 44 82 78 80 80 62
91 87 56 63 52 43 42 34 29 32 29 29 44 21 334 23 37 40 24 34 24 19 15 12 14 11 9 9 13 357 360 1 344 357 14 201 211 96 347 82 106 104 99
84 83 59 69 50 47 33 32 28 32 34 32 39 41 357 44 42 33 24 20 23 11 10 10 9 14 10 3 358 0 349 352 357 344 348 45 92 80 84 87 96 109 129
98 81 73 63 43 34 42 42 37 32 41 36 35 36 22 29 25 13 7 6 3 6 11 11 12 8 8 7 6 2 348 340 331 322 318 340 83 111 101 77 91 114 115
98 80 71 59 47 52 44 49 42 49 38 40 35 21 27 12 12 7 5 3 3 3 8 10 10 12 5 7 9 0 360 346 316 313 309 297 99 123 122 112 98 101 102
94 79 73 60 49 39 38 42 36 35 26 22 20 13 11 17 15 6 359 4 3 3 7 6 8 3 8 7 5 360 348 333 332 314 298 293 121 139 129 110 118 115 120
67 17 31 46 57 52 41 36 29 23 20 20 16 11 4 0 357 359 360 1 357 359 1 4 3 356 4 6 1 340 342 342 344 333 318 14 136 146 154 136 142 140 144